Regional Weather Roundup
Issued by NWS Goodland, KS

Home | Current Version | Previous Version | Text Only | Print | Product List | Glossary Off
Versions: 1 2 3 4 5 6 7 8 9 10 11 12 13 14 15 16 17 18 19 20 21 22 23 24 25 26 27 28 29 30 31 32 33 34 35 36 37 38 39 40 41 42 43 44 45 46 47 48 49 50

000
ASUS43 KGLD 310208
RWRGLD

GOODLAND FORECAST AREA HOURLY WEATHER ROUNDUP
NATIONAL WEATHER SERVICE GOODLAND KS
800 PM MDT SAT JUL 30 2016

...OFFICIAL OBSERVATIONS...

CITY           SKY/WX    TMP DP  RH WIND       PRES   REMARKS
GOODLAND KS    CLOUDY    80  65  59 SE12      29.91S
HILL CITY KS   CLEAR     83  67  58 SE12      29.89S
IMPERIAL NEB   CLEAR     80  63  55 SE12      29.89F
MCCOOK NEB     CLEAR     81  64  56 E10       29.88S
AKRON CO       CLEAR     77  59  53 SE10      29.96S
BURLINGTON CO  CLOUDY    81  62  52 E15       29.93S
LIMON CO       CLOUDY    78  52  40 S8        30.02R
$$

...UNOFFICIAL OBSERVATIONS...

CITY           SKY/WX    TMP DP  RH WIND       PRES   REMARKS
COLBY KS       CLEAR     81  66  61 E7        29.91S
LENORA KS        N/A     82  32  16 MISG        N/A
NORTON KS      CLEAR     81  61  50 E9        29.88S
SHARON SPRINGS   N/A     82  67  59 SE8G15      N/A
KIT CARSON CO    N/A     84  59  42 CALM        N/A
YUMA CO          N/A     77  65  66 SE5         N/A
$$




USA.gov is the U.S. government's official web portal to all federal, state and local government web resources and services.